Location: Taupo
(38.6830°S, 176.0830°E)
Time: 22:12:14
(UTC+12:00)

Cosmos 1356 - Pass Details

Date: 24 January 2019
Orbit: 449 x 450 km, 81.1° (Epoch: 19 April)

Event Time Altitude Azimuth Distance (km) Brightness Sun altitude
Exits shadow 22:15:03 36° 78° (ENE) 740 4.0 -16.6°
Maximum altitude 22:15:15 37° 86° (E) 736 4.0 -16.6°
Drops below altitude 10° 22:18:30 10° 154° (SSE) 1,612 6.4 -17.1°
Sets 22:20:42 0° 162° (SSE) 2,495 7.5 -17.4°
